Date String (YYYY-MM-DD hh:mm:ss) UTC,Instrument flags,absolute air pressure of the measurement (hPa),sample flow rate (lpm),inlet stack bypass flow (lpm),air temperature of the measurement (°C),ambient temperature measured by the external sensor (°C),aerosol sample conditioner tube jacket temperature (°C),OPC LED temperature (°C),internal box temperature (°C),relative humidity of the measurement (%),span deviation,mass concentration of particles derived from Lorenz-Mie calculation of OPC scattering (μg/m³),mass concentration of particles derived from Lorenz-Mie calculation of OPC scattering (μg/m³),mass concentration of particles derived from Lorenz-Mie calculation of OPC scattering (μg/m³)
DateTimeUTC,F1_M11,P_M11,Q1_M11,Q2_M11,T1_M11,T2_M11,T3_M11,T4_M11,T5_M11,U1_M11,ZSPAN_M11,X2_M11,X0_M11,X1_M11
2024-05-12 14:00:00,SystemResetWarning,0825.0,4.99,000.00,025.7,025.2,000.0,033.8,027.5,023.7,0000.0,0004.64,0011.44,0003.72
2024-05-12 14:01:00,SystemResetWarning,0825.1,5.00,000.00,025.7,025.2,000.0,033.9,027.5,023.5,0000.0,0004.64,0011.17,0003.71
2024-05-12 14:02:00,SystemResetWarning,0824.9,5.01,000.00,025.7,025.2,000.0,033.9,027.5,023.4,0000.0,0004.66,0011.18,0003.72
2024-05-12 14:03:00,SystemResetWarning,0824.9,5.01,000.00,025.7,025.2,000.0,033.9,027.5,023.4,0000.0,0004.63,0011.36,0003.74
2024-05-12 14:04:00,SystemResetWarning,0824.9,5.00,000.00,025.7,025.2,000.0,033.9,027.6,023.8,0000.0,0004.61,0010.62,0003.73
2024-05-12 14:05:00,SystemResetWarning,0824.9,4.99,000.00,025.8,025.3,000.0,034.0,027.6,023.8,0000.0,0004.60,0010.92,0003.74
2024-05-12 14:06:00,SystemResetWarning,0825.0,4.99,000.00,025.8,025.3,000.0,034.0,027.6,023.5,0000.0,0004.63,0011.00,0003.73
2024-05-12 14:07:00,SystemResetWarning,0825.0,4.99,000.00,025.8,025.3,000.0,034.0,027.6,023.6,0000.0,0004.62,0011.15,0003.72
2024-05-12 14:08:00,SystemResetWarning,0825.1,5.00,000.00,025.8,025.3,000.0,034.0,027.6,023.8,0000.0,0004.62,0011.31,0003.73
2024-05-12 14:09:00,SystemResetWarning,0825.1,5.02,000.00,025.8,025.3,000.0,034.0,027.6,023.6,0000.0,0004.57,0010.99,0003.72
2024-05-12 14:10:00,SystemResetWarning,0825.0,5.00,000.00,025.9,025.3,000.0,034.0,027.6,023.8,0000.0,0004.55,0010.82,0003.71
2024-05-12 14:11:00,SystemResetWarning,0825.0,5.00,000.00,025.9,025.4,000.0,034.1,027.7,023.6,0000.0,0004.56,0010.89,0003.70
2024-05-12 14:12:00,SystemResetWarning,0824.9,4.99,000.00,025.9,025.4,000.0,034.1,027.7,023.3,0000.0,0004.54,0010.50,0003.69
2024-05-12 14:13:00,SystemResetWarning,0825.0,4.99,000.00,025.9,025.4,000.0,034.1,027.7,023.3,0000.0,0004.53,0010.53,0003.68
2024-05-12 14:14:00,SystemResetWarning,0825.0,5.00,000.00,025.9,025.4,000.0,034.2,027.7,022.9,0000.0,0004.51,0009.87,0003.66
2024-05-12 14:15:00,SystemResetWarning,0825.0,5.00,000.00,026.0,025.4,000.0,034.2,027.7,023.4,0000.0,0004.50,0009.65,0003.67
2024-05-12 14:16:00,SystemResetWarning,0825.0,5.00,000.00,026.0,025.4,000.0,034.2,027.7,023.6,0000.0,0004.48,0009.21,0003.67
2024-05-12 14:17:00,SystemResetWarning,0825.0,5.00,000.00,026.0,025.4,000.0,034.2,027.8,023.7,0000.0,0004.47,0009.25,0003.67
2024-05-12 14:18:00,SystemResetWarning,0825.1,5.01,000.00,026.0,025.5,000.0,034.2,027.7,023.6,0000.0,0004.51,0009.17,0003.68
2024-05-12 14:19:00,SystemResetWarning,0825.1,5.01,000.00,026.0,025.5,000.0,034.2,027.8,023.9,0000.0,0004.49,0008.82,0003.68
2024-05-12 14:20:00,SystemResetWarning,0825.1,5.00,000.00,026.0,025.5,000.0,034.2,027.8,024.6,0000.0,0004.46,0009.70,0003.67
2024-05-12 14:21:00,SystemResetWarning,0825.1,5.00,000.00,026.0,025.5,000.0,034.3,027.8,024.0,0000.0,0004.42,0010.06,0003.67
2024-05-12 14:22:00,SystemResetWarning,0825.1,4.98,000.00,026.1,025.5,000.0,034.3,027.8,023.8,0000.0,0004.44,0010.76,0003.67
2024-05-12 14:23:00,SystemResetWarning,0825.1,5.00,000.00,026.1,025.5,000.0,034.3,027.9,023.2,0000.0,0004.46,0011.29,0003.68
2024-05-12 14:24:00,SystemResetWarning,0825.2,5.00,000.00,026.1,025.6,000.0,034.3,027.9,023.2,0000.0,0004.49,0011.28,0003.70
2024-05-12 14:25:00,SystemResetWarning,0825.3,5.00,000.00,026.1,025.6,000.0,034.3,027.9,023.9,0000.0,0004.55,0011.39,0003.71
2024-05-12 14:26:00,SystemResetWarning,0825.2,5.00,000.00,026.1,025.6,000.0,034.3,027.9,024.0,0000.0,0004.58,0011.32,0003.70
2024-05-12 14:27:00,SystemResetWarning,0825.2,4.98,000.00,026.0,024.2,000.0,034.4,027.2,023.2,0000.0,0004.56,0011.16,0003.70
2024-05-12 14:28:00,SystemResetWarning,0825.2,5.01,000.00,025.5,022.3,000.0,034.4,026.2,023.6,0000.0,0004.57,0011.04,0003.70
2024-05-12 14:29:00,SystemResetWarning,0825.1,5.01,000.00,025.2,022.2,000.0,034.3,026.0,024.1,0000.0,0004.53,0010.93,0003.70
2024-05-12 14:30:00,SystemResetWarning,0825.2,4.99,000.00,025.1,022.5,000.0,034.1,026.1,025.5,0000.0,0004.57,0011.02,0003.71
2024-05-12 14:31:00,SystemResetWarning,0825.2,5.00,000.00,025.1,022.9,000.0,034.0,026.4,026.6,0000.0,0004.58,0010.20,0003.71
2024-05-12 14:32:00,SystemResetWarning,0825.2,4.99,000.00,025.1,023.2,000.0,033.9,026.5,026.7,0000.0,0004.58,0010.06,0003.72
2024-05-12 14:33:00,SystemResetWarning,0825.2,5.00,000.00,025.1,023.5,000.0,033.8,026.6,026.9,0000.0,0004.57,0009.34,0003.73
2024-05-12 14:34:00,SystemResetWarning,0825.2,5.01,000.00,025.1,023.8,000.0,033.8,026.7,026.5,0000.0,0004.60,0008.95,0003.73
2024-05-12 14:35:00,SystemResetWarning,0825.2,5.00,000.00,025.2,024.0,000.0,033.7,026.8,026.7,0000.0,0004.56,0008.92,0003.73
2024-05-12 14:36:00,SystemResetWarning,0825.3,5.00,000.00,025.2,024.2,000.0,033.7,026.8,027.1,0000.0,0004.54,0008.79,0003.74
2024-05-12 14:37:00,SystemResetWarning,0825.2,4.99,000.00,025.2,024.3,000.0,033.7,026.9,026.5,0000.0,0004.54,0008.75,0003.74
2024-05-12 14:38:00,SystemResetWarning,0825.3,5.00,000.00,025.2,024.4,000.0,033.7,027.0,026.4,0000.0,0004.54,0008.98,0003.74
2024-05-12 14:39:00,SystemResetWarning,0825.2,5.00,000.00,025.3,024.5,000.0,033.7,027.0,026.7,0000.0,0004.54,0009.02,0003.74
2024-05-12 14:40:00,SystemResetWarning,0825.3,5.00,000.00,025.3,024.6,000.0,033.7,027.1,026.8,0000.0,0004.55,0009.22,0003.74
2024-05-12 14:41:00,SystemResetWarning,0825.2,4.99,000.00,025.3,024.7,000.0,033.7,027.1,026.9,0000.0,0004.55,0009.54,0003.75
2024-05-12 14:42:00,SystemResetWarning,0825.2,5.00,000.00,025.3,024.7,000.0,033.7,027.1,027.0,0000.0,0004.55,0009.73,0003.77
2024-05-12 14:43:00,SystemResetWarning,0825.2,5.00,000.00,025.4,024.8,000.0,033.7,027.2,026.3,0000.0,0004.61,0009.65,0003.79
2024-05-12 14:44:00,SystemResetWarning,0825.3,5.00,000.00,025.4,024.8,000.0,033.7,027.2,026.4,0000.0,0004.62,0010.21,0003.80
2024-05-12 14:45:00,SystemResetWarning,0825.3,5.00,000.00,025.4,024.9,000.0,033.7,027.2,026.5,0000.0,0004.63,0010.57,0003.81
2024-05-12 14:46:00,SystemResetWarning,0825.3,5.00,000.00,025.4,024.9,000.0,033.7,027.2,026.4,0000.0,0004.58,0011.00,0003.80
2024-05-12 14:47:00,SystemResetWarning,0825.3,5.01,000.00,025.5,024.9,000.0,033.8,027.3,025.8,0000.0,0004.58,0011.05,0003.80
2024-05-12 14:48:00,SystemResetWarning,0825.3,5.00,000.00,025.5,024.9,000.0,033.8,027.3,025.3,0000.0,0004.58,0011.26,0003.81
2024-05-12 14:49:00,SystemResetWarning,0825.3,5.00,000.00,025.5,025.0,000.0,033.8,027.3,025.1,0000.0,0004.60,0012.27,0003.82
2024-05-12 14:50:00,SystemResetWarning,0825.3,4.99,000.00,025.5,025.0,000.0,033.8,027.4,025.2,0000.0,0004.59,0012.55,0003.83
2024-05-12 14:51:00,SystemResetWarning,0825.3,5.00,000.00,025.6,025.0,000.0,033.9,027.4,025.4,0000.0,0004.62,0012.89,0003.85
2024-05-12 14:52:00,SystemResetWarning,0825.3,5.00,000.00,025.6,025.0,000.0,033.9,027.4,025.9,0000.0,0004.63,0013.06,0003.86
2024-05-12 14:53:00,SystemResetWarning,0825.3,5.01,000.00,025.6,025.0,000.0,033.9,027.4,026.2,0000.0,0004.62,0012.77,0003.85
2024-05-12 14:54:00,SystemResetWarning,0825.3,5.00,000.00,025.6,025.0,000.0,033.9,027.4,026.0,0000.0,0004.58,0013.33,0003.85
2024-05-12 14:55:00,SystemResetWarning,0825.3,4.99,000.00,025.6,025.0,000.0,033.9,027.4,025.8,0000.0,0004.56,0012.91,0003.85
2024-05-12 14:56:00,SystemResetWarning,0825.4,4.99,000.00,025.6,025.1,000.0,033.9,027.4,026.1,0000.0,0004.58,0012.68,0003.85
2024-05-12 14:57:00,SystemResetWarning,0825.4,5.00,000.00,025.7,025.1,000.0,034.0,027.5,026.3,0000.0,0004.67,0012.37,0003.86
2024-05-12 14:58:00,SystemResetWarning,0825.4,5.00,000.00,025.7,025.1,000.0,034.0,027.5,026.4,0000.0,0004.66,0012.30,0003.87
2024-05-12 14:59:00,SystemResetWarning,0825.4,5.00,000.00,025.7,025.1,000.0,034.0,027.5,026.4,0000.0,0004.62,0011.98,0003.87
